SPINSAT

Last updated on Sun Mar 12 2017 00:15:05 GMT+0000 (Coordinated Universal Time)

1 40314U 98067FL 17070.86633509 .10752586 12608-4 10533-3 0 9997 2 40314 51.6077 46.2938 0005698 162.2115 198.1476 16.50743229182756

Satellite not in orbit